Showing default

COSMOS 2464 (GLONASS), 37139

Orbit data source: Space-Track

COSMOS 2464 (GLONASS), 37139 is a Commonwealth of Independent States-origin payload satellite in MEO that was launched on Thu, 02 Sep 2010 UTC via a PROTON-M/DM-2 launch vehicle from the Tyuratam Missile And Space Complex (TTMTR). Payload-class satellites include a variety of spacecraft equipped with specific instruments for various scientific and technological missions. These include communications satellites like Starlink; space stations such as the ISS; scientific satellites like the Hubble; Earth observation satellites from companies like Planet Labs, Umbra, and HawkEye 360; GPS; miniature CubeSats for education and research; and military/defense satellites.

Loading next visibility...
Identifier
37139, 2010-041C
Orbit
MEO
Country
Flag of CISCIS
Related business
Manufacturer
Resehetnev ISS
Mission
Non-operational Defense Navigation
Bus & Motor
URAGAN, Unknown motor
Mass
1,450 kg wet, ~1,200 kg dry
Launch date (UTC)
2010-09-02 (16 years ago)
Launch vehicle
PROTON-M/DM-2
Launch site
Tyuratam Missile And Space Complex (TTMTR)
Object type
Payload
Rocket body
Debris
Shape & HBR
Cyl + 1 Ant + 2 Pan, 3.9 m
Radar Cross Section
8.467 m², Large (>1 m²)

Expand to show TLE details & history
Last TLE update: 1 day ago

TLE from 1 day ago
0 COSMOS 2464 (GLONASS)
1 37139U 10041C   26172.12700509  .00000073  00000-0  00000+0 0  9990
2 37139  63.9172 190.1307 0034268  10.2324  77.3756  2.13098580122971
Epoch: 2026-06-21T03:02Z
TLE epoch observation values (Epoch: 2026-06-21T03:02:53.239Z)
Latitude
63.8596°
Longitude
-39.5047°
Altitude
19,121.634 km
Speed
3.957 km/s
True Right ascension
18h 22m 11s
True Declination
63° 49' 17"
Sunlit
Object was in daylight at epoch
Visualization orbit readout
Latitude
Unknown
Longitude
Unknown
Altitude
Unknown
Speed
Unknown
Apparent Right ascension
Unknown
Apparent Declination
Unknown
Sunlit
N/A
Visualization observer readout
Local Sidereal Time
23:20:19
Azimuth
Unknown
Elevation
Unknown
Doppler factor
Unknown
Orbital elements
Apogee altitude
19,217.224 km
Perigee altitude
19,042.403 km
Semi-major axis
25,507.95 km
Eccentricity
0.00343
Inclination
63.9172°
RAAN
190.1307°
Arg. of periapsis
10.2324°
True anomaly
77.75914°
Mean anomaly
77.3756°
Eccentric anomaly
77.56734°
Mean motion
0.53276 °/min
Orbital period
675.73 mins
BSTAR
0
Loading maneuver chart data...
Computing Atmospheric mass density...
Loading historical data...
Loading historical data...
Loading historical data...
Loading historical data...
Loading historical data...
Loading historical data...
Loading historical data...

Documentation

Showing up to 5 results
|